TimeEST,TemperatureF,Dew PointF,Humidity,Sea Level PressureIn,VisibilityMPH,Wind Direction,Wind SpeedMPH,Gust SpeedMPH,PrecipitationIn,Events,Conditions,WindDirDegrees,DateUTC
12:54 AM,39.9,34.0,79,29.90,8.0,ESE,18.4,26.5,0.00,,Overcast,120,2012-12-20 05:54:00
1:54 AM,39.9,34.0,79,29.81,7.0,ESE,18.4,29.9,0.00,,Overcast,110,2012-12-20 06:54:00
2:54 AM,39.9,35.1,83,29.79,4.0,East,12.7,-,0.04,Rain,Rain,100,2012-12-20 07:54:00
3:20 AM,39.2,35.6,87,29.78,2.5,ESE,15.0,-,0.11,Rain,Heavy Rain,110,2012-12-20 08:20:00
3:27 AM,39.2,35.6,87,29.76,4.0,East,18.4,-,0.12,Rain,Light Rain,100,2012-12-20 08:27:00
3:54 AM,39.0,36.0,89,29.76,5.0,ESE,12.7,21.9,0.13,Rain,Light Rain,110,2012-12-20 08:54:00
4:52 AM,39.2,35.6,87,29.65,5.0,ESE,24.2,29.9,0.02,Rain,Light Rain,120,2012-12-20 09:52:00
4:54 AM,39.9,36.0,86,29.67,5.0,ESE,24.2,29.9,0.02,Rain,Light Rain,110,2012-12-20 09:54:00
5:06 AM,39.2,37.4,93,29.64,4.0,ESE,24.2,32.2,0.00,Rain,Light Rain,120,2012-12-20 10:06:00
5:19 AM,39.2,37.4,93,29.62,4.0,ESE,23.0,33.4,0.01,Rain,Rain,120,2012-12-20 10:19:00
5:54 AM,39.9,39.0,97,29.59,4.0,ESE,25.3,33.4,0.04,Rain,Light Rain,120,2012-12-20 10:54:00
6:15 AM,41.0,39.2,93,29.54,3.0,ESE,25.3,29.9,0.06,Rain,Rain,110,2012-12-20 11:15:00
6:54 AM,41.0,-9999,N/A,29.54,3.0,ESE,20.7,32.2,0.15,Rain,Heavy Rain,120,2012-12-20 11:54:00
7:03 AM,41.0,-9999,N/A,29.49,2.5,ESE,26.5,34.5,0.06,Rain,Heavy Rain,110,2012-12-20 12:03:00
7:54 AM,42.1,-9999,N/A,29.48,2.5,ESE,23.0,33.4,0.20,Rain,Rain,120,2012-12-20 12:54:00
8:11 AM,42.8,-9999,N/A,29.47,2.5,ESE,19.6,29.9,0.02,Rain,Rain,120,2012-12-20 13:11:00
8:54 AM,42.1,-9999,N/A,29.47,2.5,SE,13.8,21.9,0.12,Rain,Rain,130,2012-12-20 13:54:00
9:43 AM,42.8,-9999,N/A,29.37,2.5,ESE,25.3,38.0,0.05,Rain,Light Rain,110,2012-12-20 14:43:00
9:54 AM,42.1,-9999,N/A,29.37,5.0,ESE,29.9,40.3,0.05,Rain,Light Rain,120,2012-12-20 14:54:00
10:54 AM,43.0,-9999,N/A,29.34,7.0,SE,20.7,29.9,0.00,,Overcast,130,2012-12-20 15:54:00
11:54 AM,46.0,43.0,89,29.26,10.0,SE,17.3,25.3,N/A,,Overcast,130,2012-12-20 16:54:00
12:54 PM,46.9,44.1,90,29.21,9.0,SE,19.6,25.3,N/A,,Overcast,130,2012-12-20 17:54:00
1:54 PM,48.9,46.0,90,29.14,9.0,SE,19.6,28.8,0.01,Rain,Light Rain,130,2012-12-20 18:54:00
2:54 PM,51.1,46.9,86,29.10,10.0,SSE,18.4,27.6,0.00,Rain,Light Rain,150,2012-12-20 19:54:00
3:05 PM,51.8,46.4,82,29.09,5.0,SSE,15.0,27.6,0.01,Rain,Rain,160,2012-12-20 20:05:00
3:12 PM,51.8,48.2,88,29.11,3.0,SSW,21.9,26.5,0.03,Rain,Rain,200,2012-12-20 20:12:00
3:16 PM,48.2,44.6,87,29.11,2.5,SSW,20.7,27.6,0.08,Rain,Heavy Rain,210,2012-12-20 20:16:00
3:25 PM,48.2,44.6,87,29.11,5.0,SSW,15.0,-,0.10,Rain,Rain,200,2012-12-20 20:25:00
3:54 PM,46.9,45.0,93,29.12,10.0,SSW,11.5,-,0.13,Rain,Light Rain,210,2012-12-20 20:54:00
4:54 PM,45.0,-9999,N/A,29.13,10.0,SW,16.1,33.4,0.00,,Overcast,230,2012-12-20 21:54:00
5:54 PM,42.1,-9999,N/A,29.14,10.0,SW,13.8,20.7,N/A,,Overcast,230,2012-12-20 22:54:00
6:54 PM,39.9,-9999,N/A,29.16,10.0,SSW,18.4,25.3,N/A,,Overcast,210,2012-12-20 23:54:00
7:54 PM,37.9,-9999,N/A,29.17,10.0,South,12.7,-,N/A,,Overcast,190,2012-12-21 00:54:00
8:54 PM,35.1,32.0,89,29.18,7.0,SSW,11.5,-,0.00,Snow,Light Snow,210,2012-12-21 01:54:00
9:23 PM,35.6,32.0,87,29.16,10.0,SW,11.5,-,0.01,,Overcast,220,2012-12-21 02:23:00
9:43 PM,33.8,32.0,93,29.16,2.5,SW,9.2,-,0.02,Snow,Light Snow,230,2012-12-21 02:43:00
9:54 PM,33.1,32.0,96,29.18,2.0,SW,11.5,-,0.03,Snow,Light Snow,220,2012-12-21 02:54:00
9:56 PM,33.8,32.0,93,29.16,1.0,SSW,10.4,-,0.00,Snow,Light Snow,210,2012-12-21 02:56:00
10:42 PM,35.6,33.8,93,29.16,1.0,WNW,17.3,26.5,0.04,Rain,Light Rain,290,2012-12-21 03:42:00
10:54 PM,36.0,34.0,93,29.17,7.0,WNW,21.9,33.4,0.06,Rain,Light Rain,290,2012-12-21 03:54:00
11:42 PM,35.6,33.8,93,29.18,4.0,WNW,21.9,39.1,0.04,Rain,Rain,290,2012-12-21 04:42:00
11:54 PM,36.0,33.1,89,29.20,4.0,WNW,24.2,38.0,0.05,Rain,Rain,290,2012-12-21 04:54:00